Location: Vibo Valentia
(38.6670°N, 16.1000°E)
Time: 10:51:18
(UTC+02:00)

STARLINK-1353 - Pass Details

Date: 06 October 2020
Orbit: 530 x 533 km, 53.0° (Epoch: 22 October)

Event Time Altitude Azimuth Distance (km) Brightness Sun altitude
Exits shadow 04:55:34 11° 351° (N) 1,720 6.2 -24.2°
Maximum altitude 04:55:43 11° 353° (N) 1,719 6.2 -24.2°
Drops below altitude 10° 04:56:54 10° 10° (N) 1,785 6.5 -24.0°
Sets 05:00:46 0° 47° (NE) 2,678 8.1 -23.3°
